AO-07 1 07530U 74089B 19339.45581356 -.00000028 00000-0 10831-3 0 9992 2 07530 101.7709 305.5245 0012420 20.6450 94.0520 12.53641058 61790 UO-11 1 14781U 84021B 19339.31364841 .00000074 00000-0 15171-4 0 9991 2 14781 97.6002 355.9064 0009804 118.2208 241.9998 14.83125191923902 LO-19 1 20442U 90005G 19339.41816613 .00000014 00000-0 21444-4 0 9995 2 20442 98.6682 281.2704 0012073 14.6572 345.4959 14.32939746560687 HUBBLE 1 20580U 90037B 19339.24622288 .00000329 00000-0 90279-5 0 9999 2 20580 28.4679 170.7027 0002768 147.4649 15.5853 15.09308074426539 MET-2/21 1 22782U 93055A 19339.43599650 -.00000033 00000-0 -43336-4 0 9990 2 22782 82.5500 28.3624 0023466 63.9988 306.9066 13.83822540326346 AO-27 1 22825U 93061C 19339.44827182 .00000005 00000-0 20175-4 0 9993 2 22825 98.9163 332.0708 0007707 219.5341 140.5279 14.30072738366217 IO-26 1 22826U 93061D 19339.48030628 -.00000004 00000-0 16519-4 0 9996 2 22826 98.9104 332.0740 0008397 207.5406 152.5331 14.30407137366424 FO-29 1 24278U 96046B 19339.32610873 .00000004 00000-0 38150-4 0 9998 2 24278 98.5624 109.9402 0350696 160.1627 201.3550 13.53095128150746 NOAA-15 1 25338U 98030A 19339.57720403 .00000024 00000-0 28688-4 0 9996 2 25338 98.7353 0.4420 0011419 107.9985 252.2440 14.25942080121461 GO-32 1 25397U 98043D 19339.41773319 -.00000004 00000-0 17689-4 0 9990 2 25397 98.7069 277.6261 0000205 254.8847 105.2309 14.23675518112021 ISS 1 25544U 98067A 19340.05836747 .00000634 00000-0 19084-4 0 9996 2 25544 51.6435 229.2097 0006806 5.6139 319.5932 15.50091348201912 NO-44 1 26931U 01043C 19339.32159053 -.00000046 00000-0 14026-4 0 9990 2 26931 67.0515 285.9463 0007272 264.7118 95.3153 14.30560733949236 SO-50 1 27607U 02058C 19339.18487666 -.00000057 00000-0 12852-4 0 9993 2 27607 64.5554 251.3862 0070654 223.2106 136.3440 14.75593112912043 CO-55 1 27844U 03031E 19339.48662769 .00000051 00000-0 42703-4 0 9991 2 27844 98.6839 345.1611 0008835 258.6715 101.3470 14.22209112852420 CO-57 1 27848U 03031J 19339.45691869 .00000034 00000-0 35272-4 0 9999 2 27848 98.6914 345.6646 0008692 272.1234 87.8948 14.21800102852264 RS-22 1 27939U 03042A 19339.77042694 .00000084 00000-0 23735-4 0 9999 2 27939 98.0640 112.5249 0011864 246.8099 113.1861 14.66822039865473 NOAA-18 1 28654U 05018A 19339.57676116 .00000087 00000-0 71717-4 0 9995 2 28654 99.0742 28.9061 0015024 62.3136 297.9557 14.12471946749505 CO-58 1 28895U 05043F 19339.38645704 .00000114 00000-0 30806-4 0 9993 2 28895 97.9825 116.5573 0017056 171.9800 188.1679 14.63717438752308 Falconsat-3 1 30776U 07006E 19339.47244930 .00002247 00000-0 62250-4 0 9998 2 30776 35.4352 86.6111 0002981 226.9262 133.1215 15.36883466706817 CO-65 1 32785U 08021C 19339.44228030 .00000197 00000-0 26820-4 0 9993 2 32785 97.5589 331.2357 0014429 63.1810 297.0881 14.88384361628932 AAUSAT2 1 32788U 08021F 19339.47783852 .00000062 00000-0 10690-4 0 9996 2 32788 97.4931 347.6720 0011616 357.8158 2.3011 14.94877345630282 DO-64 1 32789U 08021G 19339.38764542 .00000756 00000-0 54037-4 0 9995 2 32789 97.4449 23.7723 0010605 262.9830 97.0192 15.07303085632522 CO-66 1 32791U 08021J 19339.50922980 .00000201 00000-0 25648-4 0 9995 2 32791 97.5324 337.4079 0014202 37.6670 322.5540 14.90925245629419 RS-30 1 32953U 08025A 19339.86796104 .00000021 00000-0 75656-4 0 9999 2 32953 82.5063 38.9286 0020291 118.0045 242.3092 12.43092616523452 PRISM 1 33493U 09002B 19339.40307589 .00000509 00000-0 49932-4 0 9999 2 33493 98.1281 266.8319 0014795 345.7654 14.3148 14.96825215590534 NOAA-19 1 33591U 09005A 19339.63865374 .00000045 00000-0 49939-4 0 9999 2 33591 99.1910 334.9687 0013034 261.9497 98.0195 14.12386012557895 TISAT-1 1 36799U 10035E 19339.38601233 .00000434 00000-0 49774-4 0 9990 2 36799 98.1744 137.4103 0011127 247.2766 112.7275 14.91218561510058 JUGNU 1 37839U 11058B 19339.48607891 .00000301 00000-0 18615-4 0 9992 2 37839 19.9625 25.1110 0019117 39.3784 93.7927 14.12666104421293 SRMSAT 1 37841U 11058D 19339.41144056 .00000298 00000-0 18491-4 0 9994 2 37841 19.9721 85.8483 0011718 261.4994 160.5947 14.10644686420685 AO-71 1 37854U 11061E 19339.50746609 .00001205 00000-0 68806-4 0 9998 2 37854 101.7124 325.1234 0159511 281.3472 76.9857 15.06844894442566 HRBE 1 37855U 11061F 19339.45890269 .00001020 00000-0 58610-4 0 9992 2 37855 101.7248 322.2965 0172269 293.4891 64.8298 15.05853589442326 ALMASAT-1 1 38078U 12006B 19339.87289574 .00050848 49600-5 19321-3 0 9998 2 38078 69.4189 135.0807 0113606 353.2415 163.0595 15.78196224424182 HORYU-2 1 38340U 12025D 19339.35398424 .00000133 00000-0 27433-4 0 9991 2 38340 98.3096 22.8584 0010414 306.9296 53.0958 14.75783076406186 RS-40 1 38735U 12041C 19339.43811217 -.00000006 00000-0 -11204-3 0 9995 2 38735 82.4727 122.2655 0016586 224.4005 135.5741 12.42579644333632 BEESAT-3 1 39135U 13015F 19339.36455836 .00000500 00000-0 34188-4 0 9999 2 39135 64.8658 211.2938 0041849 279.0649 80.5743 15.17772874365997 BEESAT-2 1 39136U 13015G 19339.07095580 .00000715 00000-0 45497-4 0 9997 2 39136 64.8690 216.5656 0030570 284.6810 75.0927 15.17191578365865 ZACUBE-1 1 39417U 13066B 19338.73197726 .00000175 00000-0 28305-4 0 9991 2 39417 097.5615 342.7257 0058427 198.3866 161.5237 14.81187273326060 TRITON-1 1 39427U 13066M 19339.46368803 .00000163 00000-0 34112-4 0 9999 2 39427 97.6991 306.5553 0113400 342.6897 17.0455 14.67915430323249 GOMX-1 1 39430U 13066Q 19339.74022134 .00000208 00000-0 46173-4 0 9998 2 39430 97.7691 285.2778 0152422 78.1793 283.6461 14.59318400321405 LO-74 1 39440U 13066AA 19339.44772514 .00000169 00000-0 30627-4 0 9993 2 39440 97.6137 327.9628 0078783 253.2809 105.9745 14.75926299325010 AO-73 1 39444U 13066AE 19339.44871371 .00000213 00000-0 32481-4 0 9998 2 39444 97.5579 345.5013 0057793 189.0665 170.9511 14.82021592325070 SPROUT 1 39770U 14029E 19339.55973142 .00000591 00000-0 71228-4 0 9992 2 39770 97.8914 81.8339 0007927 245.2885 114.7477 14.87528819300082 DUCHIFAT-1 1 40021U 14033M 19339.36936403 .00000267 00000-0 33011-4 0 9994 2 40021 97.9310 264.5635 0012082 205.5911 154.4710 14.90754045296823 NANOSATCBR1 1 40024U 14033Q 19339.35215932 .00000277 00000-0 34727-4 0 9999 2 40024 97.9185 261.5169 0011348 209.5863 150.4713 14.89948273296701 EO-79 1 40025U 14033R 19339.45053448 .00000218 00000-0 29146-4 0 9997 2 40025 97.9088 258.8595 0011450 216.1705 143.8738 14.89032359296587 DTUSAT-2 1 40030U 14033W 19339.49343805 .00000175 00000-0 24814-4 0 9995 2 40030 97.8990 256.7635 0010999 211.1559 148.9007 14.88617426296516 EO-80 1 40032U 14033Y 19339.50538743 .00000195 00000-0 26999-4 0 9994 2 40032 97.8997 256.7767 0010943 211.9155 148.1400 14.88563037296506 ANTELSAT 1 40034U 14033AA 19339.39970740 .00000148 00000-0 29426-4 0 9996 2 40034 97.7356 199.1479 0057307 268.8884 90.5760 14.74173206293675 VELOX-1 1 40057U 14034E 19339.84004977 .00000255 00000-0 43204-4 0 9991 2 40057 98.2560 106.8180 0011783 53.4824 306.7467 14.77759894292892 DAURIA DX 1 1 40071U 14037C 19339.71144074 .00000078 00000-0 17567-4 0 9995 2 40071 98.4443 142.4999 0009337 46.0949 314.1037 14.81314401292423 UKUBE-1 1 40074U 14037F 19339.73515937 .00000265 00000-0 38978-4 0 9997 2 40074 98.4493 151.5338 0005643 38.5922 321.5707 14.84148775292879 HODOYOSHI-1 1 40299U 14070B 19339.77021587 .00000455 00000-0 21940-4 0 9992 2 40299 97.3367 55.8914 0013380 157.1091 317.6898 15.23539752282165 CHUBUSAT-1 1 40300U 14070C 19339.72906328 .00000546 00000-0 26616-4 0 9991 2 40300 97.3124 49.4779 0019840 173.8072 301.5153 15.22276451281885 QSAT-EOS 1 40301U 14070D 19339.79251951 .00001355 00000-0 54407-4 0 9992 2 40301 97.3138 53.5383 0026140 154.1315 320.7731 15.26378506282234 FIREBIRD FU3 1 40377U 15003B 19339.30411516 .00001391 00000-0 58165-4 0 9999 2 40377 99.1178 354.4207 0124621 245.0922 113.7313 15.19371017267675 FIREBIRD FU4 1 40378U 15003C 19339.75123644 .00001382 00000-0 57766-4 0 9997 2 40378 99.1181 355.0464 0124837 243.4717 115.3670 15.19385067267747 GRIFEX 1 40379U 15003D 19339.72520171 .00001100 00000-0 50804-4 0 9995 2 40379 99.1217 348.0445 0133121 265.0938 93.5081 15.15909280267344 NO-84 1 40654U 15025D 19339.36355855 .00006520 00000 0 87338-4 0 8003 2 40654 54.9862 117.2716 0130585 44.1367 317.0006 15.50100549138736 DEORBITSAIL 1 40719U 15032E 19339.45161843 .00000350 00000-0 56953-4 0 9999 2 40719 97.8892 227.6414 0017420 115.3972 244.9043 14.76857651237316 NUDT-PHONESAT 1 40900U 15049B 19339.81372861 .00001710 00000-0 74854-4 0 9994 2 40900 97.4361 347.5225 0011532 313.6358 171.2172 15.23357682233555 XW-2A 1 40903U 15049E 19339.72942708 .00001377 00000-0 33848-4 0 9997 2 40903 97.3167 23.2969 0011720 246.9536 232.6467 15.42389248236454 XW-2C 1 40906U 15049H 19339.72948722 .00000619 00000-0 35810-4 0 9991 2 40906 97.4725 339.0525 0014104 335.9839 138.9559 15.15849403232751 XW-2D 1 40907U 15049J 19339.42557975 .00000547 00000-0 31879-4 0 9996 2 40907 97.4712 338.4378 0013485 334.2712 163.8981 15.16052483232728 LILACSAT-2 1 40908U 15049K 19339.74732900 .00000513 00000-0 31919-4 0 9993 2 40908 97.4847 337.3760 0015321 340.6541 193.1454 15.13908192232537 XW-2E 1 40909U 15049L 19339.72586126 .00000845 00000-0 44747-4 0 9990 2 40909 97.4617 341.8647 0012648 326.5205 143.4910 15.18063694232984 XW-2F 1 40910U 15049M 19339.81398528 .00000913 00000-0 48733-4 0 9994 2 40910 97.4656 341.0872 0013790 323.7596 159.8294 15.17576275232813 XW-2B 1 40911U 15049N 19339.72595488 .00000625 00000-0 35972-4 0 9990 2 40911 97.4719 339.4104 0013381 334.1532 140.9623 15.15982347232664 DCBB 1 40912U 15049P 19339.79149150 .00000827 00000-0 41636-4 0 9997 2 40912 97.4500 344.9725 0013432 302.6262 230.9678 15.19922301233142 TW-1C 1 40926U 15051B 19339.80240549 .00011106 00000-0 14154-3 0 9997 2 40926 97.1149 25.9308 0008871 97.3666 12.8862 15.59436995236635 TW-1A 1 40928U 15051D 19339.87163515 .00001935 00000-0 47848-4 0 9999 2 40928 97.1303 7.3427 0011096 165.4115 320.3798 15.41620328235386 IO-86 1 40931U 15052B 19337.59853776 .00000317 00000-0 -44920-4 0 9998 2 40931 5.9991 299.1110 0012413 7.6203 352.6160 14.76621820226116 LQSat 1 40958U 15057A 19339.44599799 .00000028 00000-0 11923-4 0 9995 2 40958 97.8806 43.8849 0019329 59.0842 301.2263 14.73099212223792 AO-85 1 40967U 15058D 19339.31902140 .00000019 00000 0 21320-4 0 8956 2 40967 64.7762 3.2944 0179640 146.2912 214.9768 14.76038276132775 ATHENOXAT-1 1 41168U 15077C 19339.84020250 .00001688 00000-0 53341-4 0 9999 2 41168 14.9891 48.8518 0011496 300.4253 59.4932 15.13961544219807 ChubuSat-2 1 41338U 16012B 19339.49310663 .00000236 00000-0 11587-4 0 9993 2 41338 31.0019 145.6133 0013859 344.4487 15.5721 15.00216200208433 ChubuSat-3 1 41339U 16012C 19339.84214951 .00000191 00000-0 80330-5 0 9999 2 41339 31.0105 141.2710 0013877 355.4792 4.5717 15.00386682208484 Horyu-4 1 41340U 16012D 19339.51091001 .00000345 00000-0 19479-4 0 9990 2 41340 31.0039 133.1227 0013954 13.0571 347.0424 15.01370446208553 OUFTI-1 1 41458U 16025C 19339.21605033 .00002261 00000-0 11676-3 0 9996 2 41458 98.1006 74.6971 0166088 146.6382 214.5444 15.06277514198089 [email protected] 1 41459U 16025D 19339.73943641 .00002415 00000-0 12510-3 0 9993 2 41459 98.1001 74.8054 0167636 146.6246 214.5681 15.05891941198132 AAUSAT4 1 41460U 16025E 19339.76041496 .00002338 00000-0 11859-3 0 9994 2 41460 98.0957 76.5225 0156804 137.4918 223.8592 15.07950917198293 LO-87 1 41557U 16033B 19339.79111428 .00000866 00000-0 34768-4 0 9995 2 41557 97.4130 66.2860 0015080 60.6420 299.6323 15.27578345196050 NuSat2 1 41558U 16033C 19339.80924236 .00000993 00000-0 37310-4 0 9994 2 41558 97.4166 67.9126 0014101 60.0716 300.1923 15.29508969196138 Lapan A3 1 41603U 16040E 19339.85314958 -.00000027 00000-0 18708-5 0 9992 2 41603 97.3387 34.1540 0013887 157.4440 315.6187 15.19771737191585 Swayam 1 41607U 16040J 19339.38678076 .00001138 00000-0 50192-4 0 9993 2 41607 97.3458 38.1127 0014211 148.6129 211.5959 15.23710314191716 Pratham 1 41783U 16059A 19339.41952263 .00000039 00000-0 16785-4 0 9994 2 41783 98.0465 35.0578 0033011 208.1910 151.7506 14.63024513170365 AlSat 1N 1 41789U 16059G 19339.80979887 .00000085 00000-0 25058-4 0 9998 2 41789 98.0482 37.8100 0028032 195.2138 164.8211 14.64281212170546 ScatSat 1 41790U 16059H 19339.71500276 .00000014 00000-0 14473-4 0 9993 2 41790 98.1886 20.5140 0005931 148.0745 212.0808 14.50896488168988 TY-1 1 41844U 16066D 19339.84957355 .00000704 00000-0 31480-4 0 9992 2 41844 97.4053 345.2361 0013885 314.4881 166.5056 15.24530415170613 Pegasus-1 1 41846U 16066F 19339.35549512 .00000250 00000-0 47199-4 0 9992 2 41846 98.6911 22.0847 0368297 93.9241 270.4125 14.37662442160934 CAS-2T 1 41847U 16066G 19339.38731445 .00000057 00000-0 18193-4 0 9991 2 41847 98.6846 22.6336 0366884 89.9730 274.3489 14.38024897161382 EO-88 1 42017U 17008BX 19339.43229221 .00001118 00000-0 46352-4 0 9995 2 42017 97.3854 44.6368 0004692 297.6237 62.4524 15.25951154155800 nSIGHT1 1 42726U 98067MF 19339.75631748 .00035837 00000-0 18604-3 0 9995 2 42726 51.6306 154.0712 0003795 144.1324 215.9933 15.80628904144629 CAS-4B 1 42759U 17034B 19339.86054933 .00000122 00000-0 20920-4 0 9997 2 42759 43.0206 16.1012 0012404 249.0857 280.3786 15.09696124136558 CAS-4A 1 42761U 17034D 19339.61142645 .00000026 00000-0 15092-4 0 9998 2 42761 43.0206 16.8962 0012771 248.2563 253.7902 15.09772996136516 UCLSat 1 42765U 17036A 19339.12660769 .00000937 00000-0 42632-4 0 9993 2 42765 97.3302 33.3376 0011295 2.7425 357.3872 15.23083000136257 NIUSat 1 42766U 17036B 19339.41066224 .00000687 00000-0 33594-4 0 9991 2 42766 97.3297 31.6079 0015150 351.4145 8.6830 15.21378026136038 LituanicaSAT 2 1 42768U 17036D 19339.41753388 .00001434 00000-0 63176-4 0 9997 2 42768 97.3346 33.3474 0014376 349.5151 10.5784 15.23347388136148 Aalto 1 1 42775U 17036L 19338.82195898 .00000564 00000-0 28025-4 0 9992 2 42775 097.3282 031.3818 0013591 353.9285 006.1784 15.21559396135928 URSA MAIOR 1 42776U 17036M 19339.42461446 .00000606 00000-0 29723-4 0 9998 2 42776 97.3293 32.1747 0013331 351.7381 8.3633 15.21713449136026 Max Valier Sat 1 42778U 17036P 19339.46514188 .00000673 00000-0 32174-4 0 9994 2 42778 97.3338 33.2089 0011930 356.1345 3.9797 15.22284650136065 Pegasus 1 42784U 17036V 19339.17975046 .00000810 00000-0 37563-4 0 9993 2 42784 97.3307 33.1530 0011852 2.8671 357.2632 15.22807661136053 NUDATSat 1 42787U 17036Y 19338.93206430 .00001625 00000-0 70038-4 0 9992 2 42787 097.3344 033.8929 0012353 359.4631 000.6590 15.23926554135910 SUCHAI 1 1 42788U 17036Z 19339.13799694 .00000994 00000-0 44811-4 0 9993 2 42788 97.3313 33.5337 0011380 2.1287 357.9996 15.23280237136140 SKCUBE 1 42789U 17036AA 19338.90324677 .00000942 00000-0 42751-4 0 9997 2 42789 097.3308 033.2106 0011277 003.3166 356.8144 15.23155419136023 VZLUSAT 1 1 42790U 17036AB 19338.91959642 .00001189 00000-0 52073-4 0 9998 2 42790 097.3328 033.8773 0010759 002.0305 358.0974 15.23911961136069 VENTA 1 1 42791U 17036AC 19338.87636052 .00000900 00000-0 40990-4 0 9996 2 42791 097.3306 033.2340 0010967 004.1114 356.0211 15.23158629136013 Robusta 1B 1 42792U 17036AD 19339.40609689 .00000918 00000-0 41539-4 0 9992 2 42792 97.3310 33.8947 0010831 2.4354 357.6934 15.23334931136128 D-SAT 1 42794U 17036AF 19339.38118074 .00000312 00000-0 32688-4 0 9997 2 42794 97.5193 16.4267 0124977 296.2430 62.5988 14.91180182133622 TechnoSat 1 42829U 17042E 19339.80474292 -.00000005 00000-0 48546-5 0 9998 2 42829 97.5429 225.3976 0013365 208.3275 151.7219 14.91030923130284 QIKCOM-1 1 42983U 98067NF 19339.27738824 .00002466 00000-0 36205-4 0 9990 2 42983 51.6386 208.2016 0004305 51.6574 308.4806 15.59996274119801 AO-91 1 43017U 17073E 19339.31877638 .00000651 00000-0 56589-4 0 9990 2 43017 97.7246 254.0471 0257005 326.3094 32.2004 14.78729591110322 EcAMSat 1 43019U 98067NG 19339.84154224 .00004700 00000-0 55995-4 0 9990 2 43019 51.6395 197.0294 0004255 40.4074 319.7236 15.63265447202328 PICSAT 1 43132U 18004X 19339.46149886 .00000978 00000-0 43380-4 0 9993 2 43132 97.4713 46.8091 0010231 28.0324 332.1463 15.23942147105354 AO-92 1 43137U 18004AC 19339.46907054 .00000734 00000-0 33489-4 0 9996 2 43137 97.4702 46.7416 0009894 30.1802 330.0003 15.23751984105348 TianYi 2 1 43155U 18008A 19339.78487882 .00000456 00000-0 30713-4 0 9995 2 43155 97.4709 48.6163 0019348 98.3101 22.7374 15.11362281103516 Zhou Enlai 1 43156U 18008B 19339.75400546 .00000792 00000-0 51257-4 0 9994 2 43156 97.4751 48.4563 0016303 96.6006 20.6510 15.10879822103476 TianYi 6 1 43158U 18008D 19339.84436457 .00000275 00000-0 20478-4 0 9993 2 43158 97.4705 47.8395 0015450 94.6859 12.3920 15.10442071103441 S-Net G 1 43186U 18014G 19338.97231408 .00000405 00000-0 40512-4 0 9999 2 43186 97.7022 244.8663 0011657 151.1147 209.0722 14.96721918100454 S-Net H 1 43187U 18014H 19339.44010973 .00000331 00000-0 34016-4 0 9995 2 43187 97.7020 245.3109 0011674 149.5161 210.6742 14.96722293100525 S-Net J 1 43188U 18014J 19338.97196376 .00000422 00000-0 42008-4 0 9996 2 43188 97.7022 244.8723 0011660 151.1871 208.9997 14.96721559100454 S-Net K 1 43189U 18014K 19339.37344671 .00000318 00000-0 32882-4 0 9998 2 43189 97.7020 245.2418 0011656 149.6785 210.5113 14.96721533 99065 FMN 1 1 43192U 18015A 19339.74615119 .00001618 00000-0 67811-4 0 9996 2 43192 97.4200 105.6301 0017335 58.5305 51.1382 15.24854182102221 Shaonian Xing 1 43199U 18015H 19339.77200860 .00001210 00000-0 50876-4 0 9990 2 43199 97.3987 104.4108 0018442 68.1046 37.8786 15.25216777102288 1KUNS-PF 1 43466U 98067NP 19339.86397231 .00026709 00000-0 18594-3 0 9991 2 43466 51.6326 186.4757 0002071 153.0275 207.0832 15.74168751 89643 UBAKUSAT 1 43467U 98067NQ 19339.81893108 .00010696 00000-0 10299-3 0 9993 2 43467 51.6346 196.7256 0001076 50.8480 309.2611 15.67149149 89518 Irazu 1 43468U 98067NR 19339.29524447 .00055002 00000-0 26249-3 0 9995 2 43468 51.6339 180.3304 0003036 184.1801 175.9176 15.82260475189664 EnduroSat One 1 43551U 98067NZ 19339.33046787 .00015191 00000-0 13651-3 0 9997 2 43551 51.6345 200.9612 0005350 87.9519 272.2090 15.68469312 79649 EQUISat 1 43552U 98067PA 19339.17510621 .00012470 00000-0 12459-3 0 9995 2 43552 51.6366 205.2305 0005840 79.4413 280.7240 15.66026057 79535 UiTMSat 1 1 43589U 98067PD 19339.33187182 .00012969 00000-0 12564-3 0 9995 2 43589 51.6337 204.6746 0005422 91.0330 269.1287 15.66761502 75291 Maya 1 1 43590U 98067PE 19339.83551201 .00013806 00000-0 13325-3 0 9996 2 43590 51.6337 202.0450 0005522 92.6569 267.5059 15.66787141 75307 Bhutan 1 1 43591U 98067PF 19339.05425455 .00015030 00000-0 14431-3 0 9992 2 43591 51.6343 205.8676 0005632 90.0356 270.1285 15.66831878 75188 SiriusSat 1 1 43595U 98067PG 19339.20680466 .00011668 00000-0 11869-3 0 9993 2 43595 51.6339 207.6010 0002933 63.5989 296.5307 15.65658418 74358 SiriusSat 2 1 43596U 98067PH 19339.19110653 .00013809 00000-0 14032-3 0 9992 2 43596 51.6349 208.3009 0003330 59.5764 300.5560 15.65497178 74344 Tanusha-3 1 43597U 98067PJ 19339.33740784 .00017808 00000-0 15756-3 0 9990 2 43597 51.6327 203.1741 0003209 88.5113 271.6251 15.68716142 74424 SurfSat 1 43614U 18070B 19339.23787015 .00001899 00000-0 50381-4 0 9990 2 43614 93.0386 73.7814 0016343 21.2635 338.9295 15.38284887 68462 CP-7 DAVE 1 43615U 18070C 19339.51402065 .00001896 00000-0 50483-4 0 9991 2 43615 93.0389 73.8940 0016432 19.6526 340.5358 15.38181352 68503 ELFIN-B 1 43616U 18070D 19339.43832085 .00002593 00000-0 66865-4 0 9998 2 43616 93.0347 73.7697 0017084 22.6603 337.5401 15.39119200 68510 ELFIN-A 1 43617U 18070E 19339.42500714 .00002872 00000-0 73797-4 0 9991 2 43617 93.0403 74.1131 0016190 19.8258 340.3622 15.39227495 68516 STARS-Me Mother 1 43640U 98067PQ 19339.08824968 .00007753 00000-0 95419-4 0 9991 2 43640 51.6358 215.8650 0004637 27.4530 332.6707 15.61309288 66165 CubeBel 1 1 43666U 18083E 19339.85963052 .00000943 00000-0 49830-4 0 9992 2 43666 97.5077 3.0892 0014062 322.8272 161.9554 15.17872929 61091 Changshagaoxin 1 43669U 18083H 19339.77924314 .00000758 00000-0 41728-4 0 9996 2 43669 97.4944 1.7964 0009732 316.5822 43.4644 15.17004654 61018 Ten-Koh 1 43677U 18084G 19339.43660001 .00000026 00000-0 85308-5 0 9990 2 43677 97.8670 92.2254 0017496 83.0103 277.3104 14.90223422 59896 PO-101 1 43678U 18084H 19339.79976241 -.00000314 00000-0 -25566-4 0 9997 2 43678 97.8672 93.4812 0011294 99.3891 260.8620 14.91586796 60008 IRVINE 01 1 43693U 18088D 19339.34619259 .00001790 00000-0 76392-4 0 9992 2 43693 85.0371 206.0471 0016276 292.8223 67.1299 15.22028690 59161 QO-100 1 43700U 18090A 19339.27757889 .00000153 00000-0 00000 0 0 9998 2 43700 0.0174 314.1211 0001423 318.2057 287.2264 1.00269410 3992 Reaktor Hello World 1 43743U 18096AA 19339.84719931 .00000929 00000-0 37722-4 0 9997 2 43743 97.4430 49.5300 0019778 95.1851 11.8373 15.26963309 56695 MinXSS-2 1 43758U 18099A 19339.43884791 -.00000007 00000-0 46153-5 0 9995 2 43758 97.7299 49.3450 0016978 118.6970 241.5959 14.95526136 54804 AO-95 1 43770U 18099N 19339.46173739 .00000153 00000-0 19316-4 0 9996 2 43770 97.7294 49.0155 0015859 125.3034 234.9672 14.94863965 54783 RANGE-B 1 43772U 18099Q 19339.43692545 .00000163 00000-0 20161-4 0 9997 2 43772 97.7357 49.2939 0015595 113.4407 246.8455 14.95011049 54775 RANGE-A 1 43773U 18099R 19339.45167577 -.00000206 00000-0 -13597-4 0 9997 2 43773 97.7241 48.7873 0014908 113.3266 246.9525 14.94874832 54773 MOVE-II 1 43780U 18099Y 19339.46004091 .00000252 00000-0 28086-4 0 9995 2 43780 97.7288 49.1139 0014853 123.6021 236.6619 14.95210713 54777 SNUSat 2 1 43782U 18099AA 19339.45849582 .00000017 00000-0 67358-5 0 9993 2 43782 97.7291 49.1535 0014104 113.1395 247.1314 14.95140170 54789 SnugLite 1 43784U 18099AC 19339.43895291 -.00000073 00000-0 -13560-5 0 9991 2 43784 97.7259 49.0169 0016438 120.4396 239.8451 14.95232302 54791 ITASat 1 1 43786U 18099AE 19339.43710080 -.00000008 00000-0 44978-5 0 9999 2 43786 97.7311 49.2699 0016566 119.4277 240.8600 14.95224222 54790 EAGLET 1 1 43790U 18099AJ 19339.47847710 .00000615 00000-0 60463-4 0 9998 2 43790 97.7299 49.4786 0014876 123.7326 236.5315 14.95596788 54507 ESEO 1 43792U 18099AL 19339.47856549 .00000476 00000-0 48090-4 0 9997 2 43792 97.7278 49.3872 0014714 120.7435 239.5237 14.95549165 54569 CSIM 1 43793U 18099AM 19339.30453708 .00000165 00000-0 19929-4 0 9994 2 43793 97.7257 49.1183 0014420 119.5451 240.7210 14.95856809 54514 Astrocast 0.1 1 43798U 18099AS 19339.42408575 .00000457 00000-0 46104-4 0 9993 2 43798 97.7292 49.4890 0014081 105.5771 254.7006 14.95790008 54795 JO-97 1 43803U 18099AX 19339.80755001 .00000579 00000-0 57579-4 0 9994 2 43803 97.7268 49.5051 0016595 119.3752 240.9128 14.95372566 54842 Suomi 100 1 43804U 18099AY 19339.47274436 .00000520 00000-0 52236-4 0 9997 2 43804 97.7266 49.1702 0016641 120.5240 239.7626 14.95367226 54800 Al Farabi 2 1 43805U 18099AZ 19339.79497587 .00000231 00000-0 26028-4 0 9996 2 43805 97.7269 49.5259 0016594 119.7683 240.5190 14.95451433 54858 PWSat 2 1 43814U 18099BJ 19339.47525773 .00016890 00000-0 12067-2 0 9994 2 43814 97.7760 52.6763 0011606 145.0910 215.1020 15.04507282 54331 CHOMPTT 1 43855U 18104G 19339.40200249 .00000883 00000-0 36012-4 0 9990 2 43855 85.0348 304.2152 0019865 54.0102 306.2977 15.22634986 53843 ISAT 1 43879U 18111D 19339.81399795 .00000491 00000-0 48764-4 0 9996 2 43879 97.7096 245.2623 0013387 169.4042 190.7464 14.96097401 49389 UWE-4 1 43880U 18111E 19339.42395675 .00000769 00000-0 72979-4 0 9991 2 43880 97.7110 245.0487 0012508 170.2556 189.8910 14.96338231 49337 Sparrow 1 43881U 18111F 19339.48018882 .00000467 00000-0 46277-4 0 9997 2 43881 97.7111 245.1470 0012653 169.7958 190.3523 14.96384297 49332 Lume 1 1 43908U 18111AJ 19339.41122952 .00000769 00000-0 33777-4 0 9990 2 43908 97.2786 239.9293 0023069 110.6068 249.7647 15.24643080 52306 FO-98 1 43933U 19003B 19339.79819990 .00000578 00000-0 28327-4 0 9998 2 43933 97.2593 31.6829 0017184 202.0985 251.7821 15.21844273 48921 FO-99 1 43937U 19003F 19339.78427191 .00000982 00000-0 43192-4 0 9995 2 43937 97.2551 32.3884 0024040 188.2083 265.7974 15.23928313 48981 Delphini 1 1 44030U 98067PW 19339.38444168 .00008532 00000-0 10918-3 0 9994 2 44030 51.6356 220.1037 0005041 76.2311 283.9243 15.60114485 48002 MYSat 1 1 44045U 18092F 19339.22345195 .00001517 00000-0 54006-4 0 9996 2 44045 51.6474 269.5094 0011242 342.1430 17.9157 15.35687084 45284 AstroCast 0.2 1 44083U 19018F 19339.68760765 .00000535 00000-0 26819-4 0 9991 2 44083 97.4485 38.1408 0015220 129.9117 230.3460 15.21544535 37768 AISTechSat 3 1 44103U 19018AB 19339.76711869 .00000615 00000-0 29235-4 0 9998 2 44103 97.4359 38.2786 0014399 145.2748 337.3608 15.22864130 37802 AISat 1 1 44104U 19018AC 19339.45303095 .00000760 00000-0 27039-4 0 9994 2 44104 97.4900 42.6618 0058593 183.3847 176.7006 15.30728865 37973 Raavana-1 1 44329U 98067QE 19339.40466310 .00005575 00000-0 90696-4 0 9997 2 44329 51.6393 229.2784 0006355 3.6141 356.4895 15.54341382 26632 Uguisu 1 44330U 98067QF 19338.44476211 .00006593 00000-0 10615-3 0 9996 2 44330 51.6394 234.1165 0006313 358.6551 1.4422 15.54280336 26460 NepaliSat-1 1 44331U 98067QG 19339.40086904 .00005536 00000-0 90008-4 0 9991 2 44331 51.6396 229.2538 0006402 4.8088 355.2963 15.54374608 26620 Prox-1 1 44339U 19036A 19339.20130154 .00000867 00000-0 15684-3 0 9991 2 44339 24.0026 260.2222 0011428 178.5863 181.4674 14.52761344 23709 OBJECT H 1 44346U 19036H 19339.37484623 .00384843 00000-0 52514-2 0 9991 2 44346 28.5287 218.9243 0333930 32.8031 329.2860 15.11087208 24472 OBJECT J 1 44347U 19036J 19339.37239878 .00046312 00000-0 69290-3 0 9998 2 44347 28.5323 215.0876 0353242 39.0949 323.4587 15.05615751 24519 OBJECT K 1 44348U 19036K 19339.34177059 .00010921 00000-0 16804-3 0 9998 2 44348 28.5195 219.5656 0381328 31.8368 330.4691 14.98910093 24469 Armadillo 1 44352U 19036P 19339.07905927 .00015089 00000-0 23493-3 0 9998 2 44352 28.5346 220.5419 0375343 29.9896 332.1645 15.00051713 24372 NO-104 1 44354U 19036R 19339.39299136 .00010866 00000-0 16443-3 0 9998 2 44354 28.5292 218.1596 0379012 33.5003 328.8968 14.99725089 24462 NO-103 1 44355U 19036S 19339.35991804 .00018635 00000-0 28094-3 0 9993 2 44355 28.5295 216.9272 0370518 35.5273 326.9410 15.01798169 24471 Oculus-ASR 1 44356U 19036T 19339.32419709 .00047734 00000-0 64513-3 0 9998 2 44356 28.5265 211.6250 0348140 43.9453 318.8296 15.08791317 24530 CP9 1 44360U 19036X 19339.33061813 .00029957 00000-0 39905-3 0 9997 2 44360 28.5187 213.4588 0366955 41.4349 321.3481 15.05252015 24385 Move-IIb 1 44398U 19038N 19339.46939791 .00000884 00000-0 55016-4 0 9993 2 44398 97.5108 298.5718 0027090 79.5140 280.9141 15.11888715 23111 SONATE 1 44400U 19038Q 19339.47177518 .00000351 00000-0 24217-4 0 9997 2 44400 97.5129 298.5900 0026951 78.0489 282.3761 15.11760431 23114 BeeSat 9 1 44412U 19038AC 19338.46290628 .00000653 00000-0 41622-4 0 9990 2 44412 097.5121 297.6274 0024590 086.6414 273.7629 15.11969074022652 JAISAT-1 1 44419U 19038F 19339.40583642 .00000604 00000-0 38283-4 0 9998 2 44419 97.5123 298.6719 0023399 83.3147 277.0745 15.12457066 23111 LightSail-2 1 44420U 19036AC 19339.16139572 .00003128 00000-0 67845-3 0 9999 2 44420 24.0074 259.9581 0024793 165.1509 194.9711 14.53811668 21844 Taurus 1 1 44530U 19059C 19339.79092766 .00000691 00000-0 20953-3 0 9999 2 44530 98.5814 53.9559 0014528 26.7406 333.4539 14.45291242 12225 /EX